Regional Weather Roundup
Issued by NWS Newport/Morehead, NC

Current Version | Previous Version | Graphics & Text | Print | Product List | Glossary Off
Versions: 1 2 3 4 5 6 7 8 9 10 11 12 13 14 15 16 17 18 19 20 21 22 23 24 25 26 27 28 29 30 31 32 33 34 35 36 37 38 39 40 41 42 43 44 45 46 47 48 49 50

000
ASUS42 KMHX 022013
RWRMHX
WEATHER ROUNDUP FOR EASTERN NORTH CAROLINA
NATIONAL WEATHER SERVICE NEWPORT/MOREHEAD CITY NC
400 PM EDT WED SEP 02 2015

NOTE: "FAIR" INDICATES FEW OR NO CLOUDS BELOW 12,000 FEET
WITH NO SIGNIFICANT WEATHER AND/OR OBSTRUCTIONS TO VISIBILITY

NCZ015>017-031-032-045>047-102-103-022100-
NORTH COAST

CITY           SKY/WX    TMP DP  RH WIND       PRES   REMARKS
EDENTON        SUNNY     90  64  41 S5        29.97F
ELIZABETH CITY SUNNY     90  69  50 S8        29.97F
KITTY HAWK     PTCLDY    91  69  49 SE3       29.97F
MANTEO         MOSUNNY   85  72  65 SW7       29.98F

$$

NCZ045>047-081-094-103-104-022100-
CENTRAL COAST

CITY           SKY/WX    TMP DP  RH WIND       PRES   REMARKS
FRISCO         PTSUNNY   86  73  65 S6        29.99F
SWANQUARTER      N/A     90 N/A N/A S7        29.94F

$$

NCZ095-097-098-100-101-022100-
SOUTHERN COAST

CITY           SKY/WX    TMP DP  RH WIND       PRES   REMARKS
BEAUFORT       MOSUNNY   84  76  76 S8        29.99F
CEDAR ISLAND     N/A     88 N/A N/A CALM      30.03F
JACKSONVILLE   FAIR      90  67  46 SW5       29.98F
PINEY ISLAND   PTCLDY   N/A N/A N/A E5        29.99F
WILMINGTON     MOSUNNY   91  67  44 CALM      29.99F


$$

NCZ011>013-027>030-043-044-078>080-089-090>093-098-022100-
COASTAL PLAIN

CITY           SKY/WX    TMP DP  RH WIND       PRES   REMARKS
AHOSKIE        MOSUNNY   90  73  56 CALM      29.97F
CLINTON        SUNNY     93  70  47 W6        29.99F
ELIZABETHTOWN  SUNNY     93  65  40 SW6       29.99F
GOLDSBORO      MOSUNNY   93  69  45 VRB1      29.97F
GREENVILLE     MOSUNNY   91  68  46 W7        30.00F
HAVELOCK       MOSUNNY   92  66  42 NE5       30.00F
KENANSVILLE      N/A     91  64  40 CALM      30.00F
KINSTON        MOSUNNY   91  64  40 CALM      29.99F
NEW BERN       MOSUNNY   90  67  46 CALM      30.00F
RICHLANDS      MOSUNNY   91  66  43 SW5       29.99F
ROCKY MOUNT    MOSUNNY   92  68  45 S3        29.98F
WASHINGTON     MOSUNNY   90  66  44 NW3       29.98F
WHITEVILLE     CLOUDY    91  67  46 CALM      29.99F

$$

AMZ130-135-150-152-154-156-158-170-250-252-270-ANZ085-086-088-633-658-670-022100-
MARINE OBSERVATIONS

STATION/POSITION TIME  TEMP    WIND        PRES    WAVE   SWELL
                       AIR SEA DIR/SP/G            HT/PER HT/PER
                 (UTC) (F)     (DEG/KT/KT) (MB)    (FT/S) (FT/S)
CHESAPEAKE LIGHT 2000   81     170/ 12/ 12 1015.5
64 E VA BEACH    1950   81 82  210/  8/  8 1015.0    2/ 9   2/ 9
DUCK             1900   84 81  140/  9/  9 1015.2
2 E DUCK         1911      83                N/A     1/ 9
OREGON INLET     1900   82 81  100/  4/  6 1016.3
13E OREGON INLT  2000      84                N/A     1/10
HATTERAS CG      1900   83 82  340/  2/  3 1016.3
DIAMOND BUOY     1850   82 85  340/  2/  4 1016.9    2/ 9   2/ 9
CAPE LOOKOUT     2000   82     150/  7/  7 1015.6
BEAUFORT LAB     1900   84 80  180/  7/  8 1015.7
30 SE NEW RVR IN 1908   83 82  220/  4/  6 1016.9
30 SE NEW RVR IN 1925      84                N/A     2/ 7
27 SE WRIGHTSVLE 1900   79 83  240/  6/  8   N/A
5 SE WRIGHTSVLE  NOT AVBL
225 S CAPE HAT   1950   83 84  290/  8/ 10 1015.9    2/ 9   2/ 9
41 SE CHARLESTON 1950   83 85  190/  2/  4 1016.5    2/ 7   2/ 7

$$



USA.gov is the U.S. government's official web portal to all federal, state and local government web resources and services.